GUOWANG

导读 | 豆包AI

HULIANWANG DIGUI-109是一颗于2025年12月6日由中国发射的低轨卫星,属于中国低轨卫星互联网组网建设的卫星成员。低轨卫星互联网通过卫星搭建太空通信网络,可实现全球覆盖,为地面网络难以覆盖的区域提供稳定的网络服务,进一步推动天地一体化信息网络建设,助力全球互联互通。

基本信息
目录编号:
66919
目录名称:
HULIANWANG DIGUI-109
国际标识:
2025-285E
轨道中心:
EARTH
卫星名称:
HULIANWANG DIGUI-109
卫星全名:
GUOWANG
卫星状态:
在轨 (已飞行170 天)
发射日期:
2025-12-06 UTC
国别 :
中国 (CN)
星等 :
--
轨道信息
数据来源 国际轨道数据
星历时间: 2026-05-24T06:25:42+0800
1天前
查看轨道信息
半长轴: 7527.404km
偏心率: 0.0001002
轨道倾角: 50.007°
近地点辐角 210.381°
升交点赤经 232.938°
平近点角 149.700°
近地点: 1148.512km
远地点: 1150.022km
周期: 108.325分钟
每日圈数: 13.293367
详细信息
使用方式:
暂无
2D轨道图
3D轨道图
轨道高度分析图
轨道倾角分析图
轨道综合分析图
查看轨道综合分析图